Regional Weather Roundup
Issued by NWS

Home | Current Version | Previous Version | Text Only | Print | Product List | Glossary On
Versions: 1 2 3 4 5 6 7 8 9 10 11 12 13 14 15 16 17 18 19 20 21 22 23 24 25 26 27 28 29 30 31 32 33 34 35 36 37 38 39 40 41 42 43 44 45 46 47 48 49 50
422
ASUS46 KSEW 290110
RWRWA

WASHINGTON REGIONAL WEATHER ROUNDUP
NATIONAL WEATHER SERVICE SEATTLE WA
600 PM PDT SAT MAY 28 2016

NOTE:"FAIR" INDICATES FEW OR NO CLOUDS BELOW 12,000 FEET WITH NO
SIGNIFICANT WEATHER AND/OR OBSTRUCTIONS TO VISIBILITY.

WAZ505-507>509-290200-
SEATTLE, TACOMA, EVERETT, AND VICINITY

CITY           SKY/WX    TMP DP  RH WIND       PRES   REMARKS
EVERETT        LGT RAIN  56  49  77 S21       30.01S
BOEING FIELD   CLOUDY    59  52  77 S12       30.03F
RENTON         LGT RAIN  58  51  78 SW5       30.03S
SEATAC AIRPORT LGT RAIN  56  52  86 SW9       30.04F
JBLM-MCCHORD   LGT RAIN  55  55 100 W10       30.04S
PUYALLUP       DRIZZLE   57  55  94 CALM      30.04S
BREMERTON      CLOUDY    55  54  94 S16       30.04F
JBLM-FT LEWIS  LGT RAIN  56  56  99 W9        30.04R
TACOMA NARROWS LGT RAIN  55  53  93 W5        30.05F FOG
$$

WAZ001-503-506-510-514-515-290200-
NORTH INTERIOR

CITY           SKY/WX    TMP DP  RH WIND       PRES   REMARKS
BELLINGHAM     CLOUDY    58  51  78 S13G18    29.97S
FRIDAY HARBOR  CLOUDY    57  51  80 S10G18    29.98S
EASTSOUND      CLOUDY    57  52  82 S6        29.96R
PORT ANGELES   PTSUNNY   58  51  78 VRB5      29.97S
EDIZ HOOK      FAIR      55  51  86 NW5       29.98R
PORT TOWNSEND  PTSUNNY   61  54  77 SE7       29.97S
NAS WHIDBEY    LGT RAIN  59  52  77 SE20      30.01S
ARLINGTON      CLOUDY    57  46  67 SE12      30.02F
BURLINGTON     CLOUDY    59  50  72 S8G16     30.00S
$$

WAZ020-022-039-040-504-511-512-290200-
SOUTHWEST INTERIOR

CITY           SKY/WX    TMP DP  RH WIND       PRES   REMARKS
SHELTON        CLOUDY    55  53  93 SW8       30.01F
OLYMPIA        LGT RAIN  56  53  90 SW3       30.05S FOG
CHEHALIS       PTSUNNY   61  52  72 CALM      30.05S
KELSO          CLOUDY    63  48  59 NW12      30.07S
VANCOUVER      CLOUDY    70  45  40 SW3       30.00F
SCAPPOOSE, OR  PTSUNNY   68  47  46 NE3       30.00F
PORTLAND, OR   PTSUNNY   72  43  35 N5        30.00F
$$

WAZ021-516-517-290200-
WASHINGTON COAST

CITY           SKY/WX    TMP DP  RH WIND       PRES   REMARKS
FORKS          CLOUDY    55  40  56 W8        29.99S
HOQUIAM        CLOUDY    55  55 100 S13       30.03F FOG
ASTORIA, OR    CLOUDY    58  50  75 S13G21    30.05F
$$

WAZ019-023-024-040-518-519-290200-
CASCADE MOUNTAINS AND COLUMBIA GORGE

CITY           SKY/WX    TMP DP  RH WIND       PRES   REMARKS
STAMPEDE PASS  CLOUDY    46  42  86 CALM      30.04S
TROUTDALE, OR  SUNNY     72  42  34 NW5       30.00F
THE DALLES, OR SUNNY     75  42  30 W15       29.95F
$$

WAZ026-027-041>044-520-521-290200-
EAST SLOPES

CITY           SKY/WX    TMP DP  RH WIND       PRES   REMARKS
OMAK           CLOUDY    67  39  35 S14G22    29.93F
WENATCHEE      PTSUNNY   67  43  41 W9        29.96F
ELLENSBURG     PTSUNNY   66  45  46 NW13      29.98F
YAKIMA         PTSUNNY   73  40  30 E5        29.95F
$$

WAZ028-034-035-290200-
COLUMBIA BASIN

CITY           SKY/WX    TMP DP  RH WIND       PRES   REMARKS
EPHRATA        CLOUDY    70  36  28 S12       29.95F
MOSES LAKE     PTSUNNY   72  36  26 S8        29.96F
PASCO          MOSUNNY   74  36  25 SW5       29.96F
HERMISTON, OR  MOSUNNY   76  40  27 NE7       29.94F
$$

WAZ036>038-290200-
NORTHEAST WASHINGTON

CITY           SKY/WX    TMP DP  RH WIND       PRES   REMARKS
SPOKANE GEIGER PTSUNNY   62  34  35 S6        30.01F
SPOKANE FELTS  MOSUNNY   64  35  34 S5        30.02F
FAIRCHILD AFB  MOSUNNY   62  36  37 S9        30.01F
COEURDALENE,ID CLOUDY    63  37  39 SE7       30.00F
DEER PARK      CLOUDY    61  34  36 S8        30.02F
$$

WAZ029>033-290200-
SOUTHEAST WASHINGTON

CITY           SKY/WX    TMP DP  RH WIND       PRES   REMARKS
PULLMAN        SUNNY     63  38  39 S3        30.04F
LEWISTON, ID   SUNNY     72  38  29 VRB3      29.98F
WALLA WALLA    SUNNY     71  39  31 SW8       29.97F
PENDLETON, OR  SUNNY     71  35  26 N6        29.96F
$$




USA.gov is the U.S. government's official web portal to all federal, state and local government web resources and services.